Fairbanks, AK

10:47 AM AKDT on October 14, 2019 (GMT -0800)
Fairbanks International

Weather History for PAFA - May, 2019

Change the Weather History Date:

Monday, May 20, 2019

  Actual Average Record
Temperature  
Mean Temperature 57 °F 51 °F  
Max Temperature 71 °F 63 °F 80 °F (2002)
Min Temperature 43 °F 39 °F 27 °F (2013)
Degree Days  
Heating Degree Days 8 14  
Month to date heating degree days 281 357  
Since 1 July heating degree days 11543 13381  
Cooling Degree Days 0 0  
Month to date cooling degree days 0 0  
Year to date cooling degree days 0 0  
Growing Degree Days 7 (Base 50)    
Moisture  
Dew Point 38 °F    
Average Humidity 53    
Maximum Humidity 85    
Minimum Humidity 15    
Precipitation  
Precipitation T in 0.02 in 0.45 in (2000)
Month to date precipitation 0.59 0.35  
Year to date precipitation 3.07 1.91  
Snow  
Snow 0.00 in 0.00 in T in (1966)
Month to date snowfall T 0.8  
Since 1 July snowfall 57.5 64.9  
Snow Depth 0.00 in    
Sea Level Pressure  
Sea Level Pressure 29.71 in    
Wind  
Wind Speed 3 mph (NW)    
Max Wind Speed 13 mph    
Max Gust Speed 23 mph    
Visibility 10 miles    
Events Rain    
T = Trace of Precipitation, MM = Missing Value Source: NWS Daily Summary

Daily Weather History Graph

Daily Weather History Graph

Search for Another Location

Airport or City:

Astronomy

May. 20, 2019 Rise Set
Actual Time 4:11 AM AKDT 11:26 PM AKDT
Civil Twilight 2:20 AM AKDT 1:15 AM AKDT
Nautical Twilight Sun does not rise Sun does not rise
Astronomical Twilight Sun does not rise Sun does not rise
Moon 12:35 AM AKDT (5/20) 5:41 AM AKDT (5/20)
Length of Visible Light 22h 55m
Length of Day
19h 14m
Waning Gibbous, 96% of the Moon is Illuminated
May 20
Waning Gibbous
May 26
Last Quarter
Jun 3
New
Jun 9
First Quarter
Jun 17
Full

Hourly Weather History & Observations

Time (AKDT) Temp. Windchill Dew Point Humidity Pressure Visibility Wind Dir Wind Speed Gust Speed Precip Events Conditions
12:53 AM 51.8 °F - 42.8 °F 71% 29.67 in 10.0 mi NW 3.5 mph - N/A   Mostly Cloudy
1:53 AM 46.0 °F - 41.0 °F 83% 29.68 in 10.0 mi Calm Calm - N/A   Scattered Clouds
2:53 AM 46.0 °F 43.9 °F 41.0 °F 83% 29.68 in 10.0 mi NE 4.6 mph - N/A   Scattered Clouds
3:53 AM 44.1 °F 42.5 °F 39.0 °F 82% 29.68 in 10.0 mi ENE 3.5 mph - N/A   Scattered Clouds
4:53 AM 45.0 °F 42.6 °F 39.0 °F 80% 29.68 in 10.0 mi East 4.6 mph - N/A   Mostly Cloudy
5:53 AM 44.1 °F - 39.9 °F 85% 29.68 in 10.0 mi Calm Calm - N/A   Mostly Cloudy
6:53 AM 46.9 °F - 41.0 °F 80% 29.68 in 10.0 mi NNE 3.5 mph - N/A   Mostly Cloudy
7:53 AM 48.0 °F - 39.9 °F 74% 29.68 in 10.0 mi Calm Calm - N/A   Mostly Cloudy
8:53 AM 50.0 °F - 41.0 °F 71% 29.68 in 10.0 mi South 3.5 mph - N/A   Mostly Cloudy
9:53 AM 55.0 °F - 41.0 °F 59% 29.68 in 10.0 mi Calm Calm - N/A   Mostly Cloudy
10:53 AM 55.0 °F - 39.9 °F 57% 29.69 in 10.0 mi Calm Calm - N/A   Mostly Cloudy
11:53 AM 57.0 °F - 39.9 °F 53% 29.69 in 10.0 mi Calm Calm - N/A   Mostly Cloudy
12:53 PM 61.0 °F - 41.0 °F 48% 29.70 in 10.0 mi NNE 5.8 mph - N/A   Mostly Cloudy
1:53 PM 64.9 °F - 39.9 °F 40% 29.70 in 10.0 mi Variable 3.5 mph - N/A   Mostly Cloudy
2:53 PM 68.0 °F - 39.0 °F 35% 29.69 in 10.0 mi Variable 5.8 mph - N/A   Scattered Clouds
3:53 PM 70.0 °F - 33.1 °F 26% 29.68 in 10.0 mi SSE 4.6 mph - N/A   Mostly Cloudy
4:53 PM 64.0 °F - 33.1 °F 31% 29.70 in 10.0 mi WSW 12.7 mph 23.0 mph 0.00 in Rain Light Rain
5:53 PM 66.9 °F - 37.0 °F 33% 29.70 in 10.0 mi WSW 6.9 mph - 0.00 in   Mostly Cloudy
6:53 PM 66.0 °F - 37.9 °F 36% 29.71 in 10.0 mi WNW 10.4 mph - N/A   Mostly Cloudy
7:53 PM 68.0 °F - 36.0 °F 31% 29.72 in 10.0 mi West 8.1 mph - N/A   Mostly Cloudy
8:53 PM 66.0 °F - 34.0 °F 30% 29.75 in 10.0 mi WNW 8.1 mph - N/A   Mostly Cloudy
9:53 PM 63.0 °F - 36.0 °F 37% 29.78 in 10.0 mi West 5.8 mph - N/A   Mostly Cloudy
10:53 PM 59.0 °F - 35.1 °F 41% 29.81 in 10.0 mi NNW 4.6 mph - N/A   Mostly Cloudy
11:53 PM 54.0 °F - 39.0 °F 57% 29.84 in 10.0 mi Calm Calm - N/A   Mostly Cloudy